Location: Altoona
(40.5167°N, 78.4000°W)
Time: 00:51:14
(UTC-04:00)

ATLAS 3B R/B - Pass Details

Date: 21 August 2017
Orbit: 996 x 1199 km, 63.8° (Epoch: 15 August)

Event Time Altitude Azimuth Distance (km) Brightness Sun altitude
Rises 23:32:53 0° 314° (NW) 3,813 6.6 -32.5°
Reaches altitude 10° 23:36:07 10° 300° (WNW) 2,827 5.6 -32.8°
Maximum altitude 23:41:01 23° 252° (WSW) 2,022 4.2 -33.3°
Enters shadow 23:41:11 22° 250° (WSW) 2,022 4.2 -33.3°
